SCP
0 0 0 -0 -0 -0 -0 -0 -0 0 0 0 0 -0 0 0 0 0 0 0 1 0 3 1 1 1 1 1 1 1 1 1 1 1 0 0 0 0 0 0 0 0 0 0
0 -0 0 -0 -0 -0 -0 -0 -0 0 0 0 0 0 0 0 0 0 0 0 0 0 -0 1 1 1 1 1 1 1 1 1 0 0 0 0 0 0 0 0 0 0 0 0
-0 -0 0 -0 -0 0 -0 -0 0 -0 -0 0 0 0 0 0 0 0 0 0 0 0 0 0 1 1 1 1 0 0 0 0 0 0 0 0 0 0 0 0 0 0 0 0
-0 -0 0 -0 -0 -0 0 -0 -0 -0 0 -0 0 -0 0 0 0 0 0 0 1 0 0 0 0 0 0 0 0 0 0 0 0 0 0 0 0 0 0 0 0 0 0 0
0 0 0 -0 -0 -0 -0 0 -0 -0 -0 -0 0 0 0 0 0 0 0 0 0 0 1 0 0 -0 0 0 0 0 0 0 0 0 0 0 0 0 0 0 0 0 0 0
0 0 0 -0 -0 -0 -0 0 0 0 0 0 0 0 0 0 0 0 0 0 0 1 1 0 0 -0 0 0 0 0 0 0 0 0 0 0 0 0 0 0 0 0 0 0
-0 -0 -0 0 0 0 -0 0 0 0 0 0 -0 0 0 0 0 0 0 0 0 0 0 -0 0 -0 0 0 0 0 0 0 0 0 0 0 0 0 0 0 0 0 0 0
0 -0 0 0 0 0 0 0 0 0 0 -0 0 0 0 0 0 0 0 0 0 0 -0 -0 -0 -0 0 0 0 0 0 0 0 0 0 0 0 0 0 0 0 0 0 0
0 -0 0 0 0 0 0 0 0 0 0 0 0 0 0 0 0 0 0 -0 0 0 0 0 -0 0 0 0 -0 0 0 0 0 0 0 0 0 0 0 0 0 0 0 0
0 -0 -0 0 0 0 0 0 0 0 0 0 0 0 0 0 0 0 0 0 0 0 0 0 0 -0 0 0 0 0 0 0 0 0 0 0 0 0 0 0 0 0 0 0
0 0 0 0 0 0 0 0 0 0 0 0 0 0 0 0 0 0 0 0 0 0 0 0 -0 0 0 0 0 0 0 0 0 0 0 0 0 0 0 0 0 0 0 0
0 0 0 0 0 0 0 0 0 0 0 0 0 0 0 0 0 0 0 0 0 0 0 -0 0 0 0 0 0 0 0 0 0 0 0 0 0 0 0 0 0 0 0 0
0 0 0 0 0 -0 0 0 0 0 0 0 0 0 0 0 0 0 0 0 0 0 0 0 0 0 0 0 0 -0 0 0 0 0 0 0 0 0 0 0 0 0 0 0
0 0 0 0 0 0 0 0 0 0 0 0 0 0 0 0 0 0 0 0 0 0 0 0 0 -0 0 0 0 0 0 0 0 0 0 0 0 0 0 0 0 0 0 0
0 0 0 0 0 0 0 0 0 0 0 0 0 0 0 0 0 0 0 0 0 0 0 0 0 0 0 0 0 0 0 0 0 0 0 0 0 0 0 0 0 0 0 0
0 0 0 0 0 0 0 0 0 0 0 0 0 0 0 0 0 0 0 0 0 0 0 0 -0 0 -0 0 0 -0 0 0 0 0 0 0 0 0 0 0 0 0 0 0
0 1 0 0 0 0 0 0 0 0 0 0 0 0 0 0 0 0 0 0 -0 0 -0 0 -0 0 0 -0 0 -0 0 0 0 0 0 0 0 0 0 0 0 0 0 0
0 0 0 0 0 0 0 0 0 0 0 0 0 0 0 0 0 -0 -0 0 0 0 -0 0 0 0 0 0 0 0 0 0 0 0 0 0 0 0 0 0 0 0 0 0
0 0 0 0 0 0 0 0 0 0 0 0 0 0 0 0 0 -0 -0 0 0 0 0 0 0 0 0 0 0 0 0 0 0 0 0 0 0 0 0 0 0 0 0 0
1 0 0 0 0 0 0 0 0 0 0 0 0 0 0 0 0 0 0 0 0 0 0 0 0 0 0 0 0 0 0 0 0 0 0 0 0 0 0 0 0 0 0 0
1 1 0 0 0 0 0 0 0 0 0 0 0 0 0 0 0 0 0 0 0 0 0 0 0 0 0 0 0 0 0 0 0 0 0 0 0 0 0 0 0 0 0 0
0 0 0 0 0 0 0 0 0 0 0 0 0 0 0 0 0 0 0 0 0 0 0 0 0 0 0 0 0 0 0 0 0 0 0 0 0 0 0 0 0 0 0 0
0 0 0 0 0 0 0 0 0 0 0 0 0 0 0 0 0 0 0 0 0 0 0 0 0 0 0 0 0 0 0 0 0 0 0 0 0 0 0 0 0 0 0 0
0 0 0 0 0 0 0 0 0 0 0 0 0 0 0 0 0 0 0 0 0 0 0 0 0 0 0 0 0 0 0 0 0 0 0 0 0 0 0 0 0 0 0 0
0 0 0 0 0 0 0 0 0 0 0 0 -0 0 0 0 0 0 0 0 0 0 0 0 0 0 0 0 0 0 0 0 0 0 0 0 0 0 0 0 0 0 0 0
0 0 0 0 0 0 0 0 0 0 0 0 0 0 0 0 0 0 0 0 0 0 0 0 0 0 0 0 0 0 0 0 0 0 0 0 0 0 0 0 0 0 0 0
Wind_Speed_500mb
36 5 5 17 13 29 13 21 25 35 18 12 16 31 30 46 41 36 42 40 43 52 55 50 41 42 37 35 31 29 28 28 20 24 26 24 21 17 14 12 12 8 5 11
15 16 14 21 22 32 30 31 43 40 37 20 33 33 42 10 10 38 52 29 43 33 63 45 50 42 37 31 27 26 25 24 22 22 23 19 20 14 10 13 8 15 12 13
19 24 14 32 34 25 38 35 26 10 12 8 9 9 14 4 31 23 13 29 26 6 30 45 42 40 35 26 26 21 29 28 25 21 21 24 21 18 16 13 21 20 14 17
19 35 33 32 34 33 19 13 16 22 20 9 8 16 7 5 3 5 25 28 30 26 56 53 51 48 33 32 30 28 31 30 26 22 19 18 16 15 19 13 15 4 15 17
25 24 31 30 33 11 14 5 15 14 19 10 10 9 10 11 4 13 19 14 21 45 54 36 31 40 34 41 38 38 31 25 23 22 20 22 16 19 17 13 5 6 3 13
21 46 16 19 17 15 18 13 12 11 7 6 11 10 13 12 11 27 47 67 31 30 57 36 35 47 35 34 36 33 27 27 22 18 17 19 21 26 29 23 12 11 2 15
25 30 32 8 11 19 24 23 10 11 10 11 5 10 8 19 17 13 27 76 26 39 49 32 54 47 36 37 39 33 28 29 24 16 18 17 14 14 12 13 8 10 8 5
7 15 13 7 7 11 11 14 6 8 6 10 15 5 6 6 11 29 44 47 33 22 50 66 65 48 40 41 42 38 37 34 22 17 12 17 14 6 3 8 12 16 15 9
7 10 10 2 8 14 10 5 11 1 7 7 3 7 3 10 15 28 33 42 48 29 24 51 60 50 48 39 39 41 39 29 22 16 11 9 7 1 15 13 14 19 22 23
8 14 15 18 22 9 9 7 5 4 4 7 3 9 3 14 10 17 32 41 30 26 28 55 39 55 46 39 45 44 29 19 24 13 11 14 7 9 16 25 25 12 17 18
11 7 13 15 10 18 17 14 7 7 7 5 5 4 7 5 8 9 15 17 35 17 23 43 23 54 57 57 49 26 13 23 25 17 19 16 10 7 15 22 21 17 17 20
3 5 7 15 36 27 21 6 11 9 12 8 8 2 9 6 1 7 22 16 34 33 62 35 25 39 39 32 32 25 21 20 14 23 24 18 20 17 17 28 20 13 19 21
5 3 7 17 14 13 9 16 7 8 6 2 4 6 9 8 13 18 15 36 44 45 33 41 46 26 36 33 33 31 23 15 15 19 16 19 14 16 25 19 17 17 19 22
3 5 10 11 16 15 22 18 5 11 6 2 4 5 9 16 12 9 8 13 17 39 50 59 47 49 43 43 32 28 22 19 19 14 14 10 12 22 16 15 19 23 25 26
9 5 6 17 24 27 27 30 7 7 10 8 2 10 11 12 10 16 12 18 29 37 44 39 34 30 14 13 17 22 23 20 20 17 11 14 8 13 19 24 28 33 37 38
7 10 9 16 28 30 31 13 15 8 12 16 15 12 13 22 19 19 22 17 24 25 32 37 19 19 11 10 19 17 24 19 11 15 3 6 13 17 23 24 27 29 33 36
3 5 4 11 18 25 16 5 12 13 15 6 5 12 20 12 13 12 25 29 29 25 31 20 3 16 6 4 10 11 4 6 9 9 8 15 12 14 19 27 30 32 34 37
4 5 1 9 14 12 6 12 12 19 20 16 14 13 19 21 14 20 24 23 28 26 25 21 4 16 11 15 16 12 14 13 12 17 20 17 21 22 24 23 30 36 41 43
12 8 3 5 7 11 10 10 13 12 15 17 20 17 26 24 15 21 27 24 12 11 17 18 18 34 37 32 23 20 16 14 17 17 15 19 26 33 37 41 43 42 42 42
13 11 9 5 6 9 6 20 24 10 6 29 37 26 34 39 10 11 29 20 36 29 50 53 46 36 29 20 19 21 23 22 18 17 20 24 30 34 30 31 38 41 41 38
11 8 16 13 10 9 24 14 31 10 10 34 36 43 49 17 20 39 51 42 33 28 33 30 27 23 15 19 23 22 23 21 19 21 26 28 29 28 29 33 38 40 35 30
15 13 10 9 1 10 20 8 20 8 38 37 33 35 44 49 46 52 49 42 33 28 25 23 21 18 15 18 16 12 11 12 17 24 26 25 23 27 33 36 35 25 20 16
6 5 2 4 8 6 9 3 9 20 14 11 28 16 42 55 59 53 48 44 36 30 17 13 14 14 8 7 6 9 13 18 22 27 25 20 23 30 32 25 20 24 29 32
14 4 7 4 13 37 19 5 8 16 6 6 65 14 47 66 60 53 42 35 28 27 23 16 9 4 2 7 11 15 21 25 28 28 23 21 29 33 18 20 23 31 31 30
3 14 10 6 22 30 35 21 12 15 17 25 34 22 42 59 56 46 39 37 32 29 24 23 15 11 6 5 14 21 26 29 31 29 24 21 28 22 25 24 21 30 29 28
14 10 8 11 32 20 19 16 21 29 26 21 31 37 36 40 48 41 40 39 38 37 28 21 11 8 2 6 12 21 28 32 33 30 26 25 22 29 30 33 25 28 26 27
Wind_Direction_500mb
256 253 186 279 246 272 271 263 271 267 209 225 237 251 253 234 239 73 84 92 159 214 181 160 169 184 188 193 201 209 212 211 210 178 182 182 197 206 204 198 221 196 123 138
268 245 223 232 244 250 243 250 260 266 227 201 233 239 246 302 122 129 104 96 101 122 354 160 168 179 200 204 195 188 196 187 159 155 151 162 160 167 165 161 172 139 151 211
226 233 145 263 272 251 247 237 264 304 303 266 235 321 123 99 107 119 120 129 149 113 248 216 171 178 186 187 173 174 162 155 160 153 163 165 169 170 168 164 159 169 221 291
249 263 191 235 252 255 256 304 345 332 334 293 314 285 211 169 110 167 165 186 173 157 175 200 173 186 186 176 165 172 171 162 156 160 162 173 168 170 165 155 161 224 277 304
284 301 212 229 239 263 261 336 287 286 286 324 296 75 242 105 4 301 267 228 192 157 165 177 200 196 165 167 170 186 185 165 157 168 163 173 179 161 169 168 205 227 296 282
273 294 298 278 296 295 303 329 335 318 291 347 263 172 358 350 303 356 359 344 224 178 171 178 216 200 164 169 180 186 179 161 151 157 158 162 157 159 149 143 147 116 252 233
271 267 266 359 5 357 12 3 327 335 348 247 359 79 230 338 348 356 6 19 166 196 164 237 211 175 161 178 181 185 169 143 142 143 153 162 151 150 159 193 192 228 258 211
276 342 14 359 128 175 276 157 241 293 272 290 350 101 283 249 343 353 37 54 69 40 187 209 186 174 166 175 172 164 145 138 147 143 118 131 139 150 241 277 279 260 249 271
356 292 340 240 170 137 247 263 203 223 356 12 237 55 350 351 355 10 33 25 21 2 219 322 175 174 172 173 167 150 140 144 149 150 104 131 52 284 283 292 315 226 232 251
291 319 343 338 337 323 17 266 350 34 224 272 274 302 207 328 359 5 7 15 45 41 49 330 191 161 160 165 153 149 143 135 148 190 159 182 199 289 339 333 330 280 275 288
277 64 306 352 329 303 318 317 353 111 137 185 253 233 353 24 56 359 7 74 79 125 100 26 59 134 140 135 148 147 168 158 165 190 184 183 187 225 299 323 320 278 281 297
282 186 282 266 279 277 254 232 139 126 282 209 184 207 252 225 356 269 84 114 121 113 124 157 135 127 133 152 169 171 177 179 177 190 202 207 220 250 301 323 328 294 272 285
333 5 329 331 328 354 22 313 6 111 69 357 65 268 209 219 128 60 94 118 125 130 144 141 143 151 167 181 156 161 166 158 141 178 205 196 216 278 317 324 335 323 305 294
114 167 178 217 257 277 301 313 36 106 99 252 244 97 66 58 74 89 123 158 152 148 142 141 143 125 147 181 164 164 147 157 171 192 185 215 283 306 305 324 330 331 331 325
131 191 295 290 293 299 295 278 108 95 135 151 61 93 80 110 117 111 120 105 128 142 142 140 143 154 135 175 180 163 162 181 192 197 238 282 314 331 324 321 319 323 320 322
225 197 215 274 283 287 294 241 140 149 155 117 144 123 113 103 100 123 139 120 115 112 138 145 166 151 99 230 184 264 190 179 217 290 331 333 315 302 303 302 304 314 319 309
182 155 111 269 285 303 304 277 137 107 70 99 106 147 132 117 117 137 150 178 171 168 177 210 167 172 319 103 162 174 165 51 49 14 318 275 253 273 257 284 283 285 287 289
104 46 34 280 311 287 225 79 101 106 121 108 107 114 124 143 164 178 191 177 187 203 213 212 126 128 150 138 156 150 170 181 196 213 205 207 233 252 260 271 278 284 290 298
152 134 296 212 262 263 150 169 146 154 187 155 146 145 162 188 176 226 213 212 247 220 168 172 158 153 161 167 168 180 186 198 205 229 252 262 262 269 288 292 290 296 302 303
150 153 156 246 227 259 210 158 178 114 280 160 153 171 167 169 174 220 183 201 131 120 145 157 165 174 185 193 215 227 229 239 253 274 290 293 296 300 313 304 300 307 310 314
170 196 207 238 233 296 8 8 121 126 230 153 173 185 178 171 187 144 145 141 150 159 165 176 186 198 207 235 244 238 243 255 274 281 287 295 301 302 294 294 303 312 322 322
176 179 221 261 263 330 36 330 340 208 154 172 194 217 209 181 146 141 140 138 150 167 183 198 200 207 199 214 232 240 269 296 304 301 305 307 303 298 302 312 319 335 339 352
181 58 153 141 160 210 101 219 282 13 62 351 295 195 169 159 153 152 155 164 164 153 168 195 201 188 192 199 253 296 309 322 320 319 327 324 312 308 319 331 353 331 323 321
23 10 102 50 258 239 245 3 294 259 300 230 311 179 169 158 158 156 156 152 144 138 138 133 141 134 53 325 333 333 328 335 336 339 339 334 319 328 345 359 351 338 338 333
93 144 153 233 301 294 287 264 269 195 167 211 297 165 161 154 148 152 146 145 151 153 160 160 140 85 84 349 333 327 329 337 339 338 333 325 336 356 344 338 335 341 330 332
237 169 181 223 207 214 258 244 208 163 140 147 145 120 129 145 147 151 142 151 157 150 154 145 136 166 172 340 324 313 319 330 338 340 349 2 4 351 331 328 333 332 331 339
Wind_Speed_850mb
36 5 5 17 13 29 13 21 25 35 18 12 16 31 30 46 41 36 42 40 43 52 55 50 41 42 37 35 31 29 28 28 20 24 26 24 21 17 14 12 12 8 5 11
15 16 14 21 22 32 30 31 43 40 37 20 33 33 42 10 10 38 52 29 43 33 63 45 50 42 37 31 27 26 25 24 22 22 23 19 20 14 10 13 8 15 12 13
19 24 14 32 34 25 38 35 26 10 12 8 9 9 14 4 31 23 13 29 26 6 30 45 42 40 35 26 26 21 29 28 25 21 21 24 21 18 16 13 21 20 14 17
19 35 33 32 34 33 19 13 16 22 20 9 8 16 7 5 3 5 25 28 30 26 56 53 51 48 33 32 30 28 31 30 26 22 19 18 16 15 19 13 15 4 15 17
25 24 31 30 33 11 14 5 15 14 19 10 10 9 10 11 4 13 19 14 21 45 54 36 31 40 34 41 38 38 31 25 23 22 20 22 16 19 17 13 5 6 3 13
21 46 16 19 17 15 18 13 12 11 7 6 11 10 13 12 11 27 47 67 31 30 57 36 35 47 35 34 36 33 27 27 22 18 17 19 21 26 29 23 12 11 2 15
25 30 32 8 11 19 24 23 10 11 10 11 5 10 8 19 17 13 27 76 26 39 49 32 54 47 36 37 39 33 28 29 24 16 18 17 14 14 12 13 8 10 8 5
7 15 13 7 7 11 11 14 6 8 6 10 15 5 6 6 11 29 44 47 33 22 50 66 65 48 40 41 42 38 37 34 22 17 12 17 14 6 3 8 12 16 15 9
7 10 10 2 8 14 10 5 11 1 7 7 3 7 3 10 15 28 33 42 48 29 24 51 60 50 48 39 39 41 39 29 22 16 11 9 7 1 15 13 14 19 22 23
8 14 15 18 22 9 9 7 5 4 4 7 3 9 3 14 10 17 32 41 30 26 28 55 39 55 46 39 45 44 29 19 24 13 11 14 7 9 16 25 25 12 17 18
11 7 13 15 10 18 17 14 7 7 7 5 5 4 7 5 8 9 15 17 35 17 23 43 23 54 57 57 49 26 13 23 25 17 19 16 10 7 15 22 21 17 17 20
3 5 7 15 36 27 21 6 11 9 12 8 8 2 9 6 1 7 22 16 34 33 62 35 25 39 39 32 32 25 21 20 14 23 24 18 20 17 17 28 20 13 19 21
5 3 7 17 14 13 9 16 7 8 6 2 4 6 9 8 13 18 15 36 44 45 33 41 46 26 36 33 33 31 23 15 15 19 16 19 14 16 25 19 17 17 19 22
3 5 10 11 16 15 22 18 5 11 6 2 4 5 9 16 12 9 8 13 17 39 50 59 47 49 43 43 32 28 22 19 19 14 14 10 12 22 16 15 19 23 25 26
9 5 6 17 24 27 27 30 7 7 10 8 2 10 11 12 10 16 12 18 29 37 44 39 34 30 14 13 17 22 23 20 20 17 11 14 8 13 19 24 28 33 37 38
7 10 9 16 28 30 31 13 15 8 12 16 15 12 13 22 19 19 22 17 24 25 32 37 19 19 11 10 19 17 24 19 11 15 3 6 13 17 23 24 27 29 33 36
3 5 4 11 18 25 16 5 12 13 15 6 5 12 20 12 13 12 25 29 29 25 31 20 3 16 6 4 10 11 4 6 9 9 8 15 12 14 19 27 30 32 34 37
4 5 1 9 14 12 6 12 12 19 20 16 14 13 19 21 14 20 24 23 28 26 25 21 4 16 11 15 16 12 14 13 12 17 20 17 21 22 24 23 30 36 41 43
12 8 3 5 7 11 10 10 13 12 15 17 20 17 26 24 15 21 27 24 12 11 17 18 18 34 37 32 23 20 16 14 17 17 15 19 26 33 37 41 43 42 42 42
13 11 9 5 6 9 6 20 24 10 6 29 37 26 34 39 10 11 29 20 36 29 50 53 46 36 29 20 19 21 23 22 18 17 20 24 30 34 30 31 38 41 41 38
11 8 16 13 10 9 24 14 31 10 10 34 36 43 49 17 20 39 51 42 33 28 33 30 27 23 15 19 23 22 23 21 19 21 26 28 29 28 29 33 38 40 35 30
15 13 10 9 1 10 20 8 20 8 38 37 33 35 44 49 46 52 49 42 33 28 25 23 21 18 15 18 16 12 11 12 17 24 26 25 23 27 33 36 35 25 20 16
6 5 2 4 8 6 9 3 9 20 14 11 28 16 42 55 59 53 48 44 36 30 17 13 14 14 8 7 6 9 13 18 22 27 25 20 23 30 32 25 20 24 29 32
14 4 7 4 13 37 19 5 8 16 6 6 65 14 47 66 60 53 42 35 28 27 23 16 9 4 2 7 11 15 21 25 28 28 23 21 29 33 18 20 23 31 31 30
3 14 10 6 22 30 35 21 12 15 17 25 34 22 42 59 56 46 39 37 32 29 24 23 15 11 6 5 14 21 26 29 31 29 24 21 28 22 25 24 21 30 29 28
14 10 8 11 32 20 19 16 21 29 26 21 31 37 36 40 48 41 40 39 38 37 28 21 11 8 2 6 12 21 28 32 33 30 26 25 22 29 30 33 25 28 26 27
Wind_Direction_850mb
256 253 186 279 246 272 271 263 271 267 209 225 237 251 253 234 239 73 84 92 159 214 181 160 169 184 188 193 201 209 212 211 210 178 182 182 197 206 204 198 221 196 123 138
268 245 223 232 244 250 243 250 260 266 227 201 233 239 246 302 122 129 104 96 101 122 354 160 168 179 200 204 195 188 196 187 159 155 151 162 160 167 165 161 172 139 151 211
226 233 145 263 272 251 247 237 264 304 303 266 235 321 123 99 107 119 120 129 149 113 248 216 171 178 186 187 173 174 162 155 160 153 163 165 169 170 168 164 159 169 221 291
249 263 191 235 252 255 256 304 345 332 334 293 314 285 211 169 110 167 165 186 173 157 175 200 173 186 186 176 165 172 171 162 156 160 162 173 168 170 165 155 161 224 277 304
284 301 212 229 239 263 261 336 287 286 286 324 296 75 242 105 4 301 267 228 192 157 165 177 200 196 165 167 170 186 185 165 157 168 163 173 179 161 169 168 205 227 296 282
273 294 298 278 296 295 303 329 335 318 291 347 263 172 358 350 303 356 359 344 224 178 171 178 216 200 164 169 180 186 179 161 151 157 158 162 157 159 149 143 147 116 252 233
271 267 266 359 5 357 12 3 327 335 348 247 359 79 230 338 348 356 6 19 166 196 164 237 211 175 161 178 181 185 169 143 142 143 153 162 151 150 159 193 192 228 258 211
276 342 14 359 128 175 276 157 241 293 272 290 350 101 283 249 343 353 37 54 69 40 187 209 186 174 166 175 172 164 145 138 147 143 118 131 139 150 241 277 279 260 249 271
356 292 340 240 170 137 247 263 203 223 356 12 237 55 350 351 355 10 33 25 21 2 219 322 175 174 172 173 167 150 140 144 149 150 104 131 52 284 283 292 315 226 232 251
291 319 343 338 337 323 17 266 350 34 224 272 274 302 207 328 359 5 7 15 45 41 49 330 191 161 160 165 153 149 143 135 148 190 159 182 199 289 339 333 330 280 275 288
277 64 306 352 329 303 318 317 353 111 137 185 253 233 353 24 56 359 7 74 79 125 100 26 59 134 140 135 148 147 168 158 165 190 184 183 187 225 299 323 320 278 281 297
282 186 282 266 279 277 254 232 139 126 282 209 184 207 252 225 356 269 84 114 121 113 124 157 135 127 133 152 169 171 177 179 177 190 202 207 220 250 301 323 328 294 272 285
333 5 329 331 328 354 22 313 6 111 69 357 65 268 209 219 128 60 94 118 125 130 144 141 143 151 167 181 156 161 166 158 141 178 205 196 216 278 317 324 335 323 305 294
114 167 178 217 257 277 301 313 36 106 99 252 244 97 66 58 74 89 123 158 152 148 142 141 143 125 147 181 164 164 147 157 171 192 185 215 283 306 305 324 330 331 331 325
131 191 295 290 293 299 295 278 108 95 135 151 61 93 80 110 117 111 120 105 128 142 142 140 143 154 135 175 180 163 162 181 192 197 238 282 314 331 324 321 319 323 320 322
225 197 215 274 283 287 294 241 140 149 155 117 144 123 113 103 100 123 139 120 115 112 138 145 166 151 99 230 184 264 190 179 217 290 331 333 315 302 303 302 304 314 319 309
182 155 111 269 285 303 304 277 137 107 70 99 106 147 132 117 117 137 150 178 171 168 177 210 167 172 319 103 162 174 165 51 49 14 318 275 253 273 257 284 283 285 287 289
104 46 34 280 311 287 225 79 101 106 121 108 107 114 124 143 164 178 191 177 187 203 213 212 126 128 150 138 156 150 170 181 196 213 205 207 233 252 260 271 278 284 290 298
152 134 296 212 262 263 150 169 146 154 187 155 146 145 162 188 176 226 213 212 247 220 168 172 158 153 161 167 168 180 186 198 205 229 252 262 262 269 288 292 290 296 302 303
150 153 156 246 227 259 210 158 178 114 280 160 153 171 167 169 174 220 183 201 131 120 145 157 165 174 185 193 215 227 229 239 253 274 290 293 296 300 313 304 300 307 310 314
170 196 207 238 233 296 8 8 121 126 230 153 173 185 178 171 187 144 145 141 150 159 165 176 186 198 207 235 244 238 243 255 274 281 287 295 301 302 294 294 303 312 322 322
176 179 221 261 263 330 36 330 340 208 154 172 194 217 209 181 146 141 140 138 150 167 183 198 200 207 199 214 232 240 269 296 304 301 305 307 303 298 302 312 319 335 339 352
181 58 153 141 160 210 101 219 282 13 62 351 295 195 169 159 153 152 155 164 164 153 168 195 201 188 192 199 253 296 309 322 320 319 327 324 312 308 319 331 353 331 323 321
23 10 102 50 258 239 245 3 294 259 300 230 311 179 169 158 158 156 156 152 144 138 138 133 141 134 53 325 333 333 328 335 336 339 339 334 319 328 345 359 351 338 338 333
93 144 153 233 301 294 287 264 269 195 167 211 297 165 161 154 148 152 146 145 151 153 160 160 140 85 84 349 333 327 329 337 339 338 333 325 336 356 344 338 335 341 330 332
237 169 181 223 207 214 258 244 208 163 140 147 145 120 129 145 147 151 142 151 157 150 154 145 136 166 172 340 324 313 319 330 338 340 349 2 4 351 331 328 333 332 331 339